Location: Brantley
(31.5822°N, 86.2569°W)
Time: 07:39:07
(UTC+00:00)

Transit 2A Rocket - Pass Details

Date: 24 February 2026
Orbit: 583 x 900 km, 66.7° (Epoch: 8 March)

Event Time Altitude Azimuth Distance (km) Brightness Sun altitude
Rises 20:47:24 0° 240° (WSW) 3,473 9.5 32.5°
Reaches altitude 10° 20:50:25 10° 255° (WSW) 2,558 8.9 32.0°
Maximum altitude 20:55:03 23° 305° (NW) 1,817 7.4 31.3°
Drops below altitude 10° 20:59:43 10° 357° (N) 2,564 7.5 30.4°
Sets 21:02:46 0° 11° (NNE) 3,483 8.0 29.9°
